Time,TemperatureF,DewpointF,PressureIn,WindDirection,WindDirectionDegrees,WindSpeedMPH,WindSpeedGustMPH,Humidity,HourlyPrecipIn,Conditions,Clouds,dailyrainin,SolarRadiationWatts/m^2,SoftwareType,DateUTC
2013-04-06 00:12:00,43.9,23.0,30.02,West,276,4.0,-999.0,43,-99.99,,,0.11,0,weatherlink.com 1.10,2013-04-06 04:12:00,
2013-04-06 00:27:00,43.3,22.0,30.02,NNW,341,3.0,-999.0,43,-99.99,,,0.11,0,weatherlink.com 1.10,2013-04-06 04:27:00,
2013-04-06 00:42:00,42.8,22.0,30.03,NW,313,1.0,-999.0,44,-99.99,,,0.11,0,weatherlink.com 1.10,2013-04-06 04:42:00,
2013-04-06 00:57:00,42.3,22.0,30.03,NNW,344,1.0,-999.0,45,-99.99,,,0.11,0,weatherlink.com 1.10,2013-04-06 04:57:00,
2013-04-06 01:12:00,41.7,22.0,30.04,North,355,1.0,-999.0,46,-99.99,,,0.11,0,weatherlink.com 1.10,2013-04-06 05:12:00,
2013-04-06 01:27:00,41.2,22.0,30.05,NW,317,1.0,-999.0,46,-99.99,,,0.11,0,weatherlink.com 1.10,2013-04-06 05:27:00,
2013-04-06 01:42:00,41.1,22.0,30.06,NNW,336,3.0,-999.0,47,-99.99,,,0.11,0,weatherlink.com 1.10,2013-04-06 05:42:00,
2013-04-06 01:57:00,40.9,22.0,30.06,North,349,5.0,-999.0,48,-99.99,,,0.11,0,weatherlink.com 1.10,2013-04-06 05:57:00,
2013-04-06 02:12:00,40.6,23.0,30.07,NE,36,3.0,-999.0,49,-99.99,,,0.00,0,weatherlink.com 1.10,2013-04-06 06:12:00,
2013-04-06 02:27:00,40.2,23.0,30.07,NNW,331,3.0,-999.0,50,-99.99,,,0.00,0,weatherlink.com 1.10,2013-04-06 06:27:00,
2013-04-06 02:42:00,39.9,22.0,30.07,NW,316,4.0,-999.0,50,-99.99,,,0.00,0,weatherlink.com 1.10,2013-04-06 06:42:00,
2013-04-06 02:57:00,39.6,23.0,30.08,NW,322,1.0,-999.0,51,-99.99,,,0.00,0,weatherlink.com 1.10,2013-04-06 06:57:00,
2013-04-06 03:12:00,39.2,22.0,30.09,WNW,291,4.0,-999.0,51,-99.99,,,0.00,0,weatherlink.com 1.10,2013-04-06 07:12:00,
2013-04-06 03:27:00,38.8,23.0,30.09,NNW,348,6.0,-999.0,53,-99.99,,,0.00,0,weatherlink.com 1.10,2013-04-06 07:27:00,
2013-04-06 03:42:00,38.8,22.0,30.10,NW,315,2.0,-999.0,52,-99.99,,,0.00,0,weatherlink.com 1.10,2013-04-06 07:42:00,
2013-04-06 03:57:00,38.4,22.0,30.10,North,349,2.0,-999.0,52,-99.99,,,0.00,0,weatherlink.com 1.10,2013-04-06 07:57:00,
2013-04-06 04:12:00,38.3,21.0,30.11,NNW,341,6.0,-999.0,51,-99.99,,,0.00,0,weatherlink.com 1.10,2013-04-06 08:12:00,
2013-04-06 04:27:00,38.0,21.0,30.12,NW,320,5.0,-999.0,51,-99.99,,,0.00,0,weatherlink.com 1.10,2013-04-06 08:27:00,
2013-04-06 04:58:00,37.1,21.0,30.14,NW,304,3.0,-999.0,53,-99.99,,,0.00,0,weatherlink.com 1.10,2013-04-06 08:58:00,
2013-04-06 05:13:00,36.8,20.0,30.15,NNW,339,4.0,-999.0,52,-99.99,,,0.00,0,weatherlink.com 1.10,2013-04-06 09:13:00,
2013-04-06 05:28:00,36.5,20.0,30.16,West,281,3.0,-999.0,51,-99.99,,,0.00,0,weatherlink.com 1.10,2013-04-06 09:28:00,
2013-04-06 05:43:00,36.1,19.0,30.16,NNW,338,2.0,-999.0,50,-99.99,,,0.00,0,weatherlink.com 1.10,2013-04-06 09:43:00,
2013-04-06 06:13:00,36.1,18.0,30.18,North,355,2.0,-999.0,48,-99.99,,,0.00,0,weatherlink.com 1.10,2013-04-06 10:13:00,
2013-04-06 06:28:00,35.9,18.0,30.19,WNW,299,2.0,-999.0,49,-99.99,,,0.00,0,weatherlink.com 1.10,2013-04-06 10:28:00,
2013-04-06 06:43:00,35.7,19.0,30.20,NNW,346,3.0,-999.0,50,-99.99,,,0.00,11,weatherlink.com 1.10,2013-04-06 10:43:00,
2013-04-06 06:58:00,35.7,19.0,30.22,NNW,334,3.0,-999.0,50,-99.99,,,0.00,21,weatherlink.com 1.10,2013-04-06 10:58:00,
2013-04-06 07:28:00,36.2,19.0,30.23,North,355,2.0,-999.0,49,-99.99,,,0.00,105,weatherlink.com 1.10,2013-04-06 11:28:00,
2013-04-06 07:43:00,36.6,19.0,30.24,NNW,341,2.0,-999.0,49,-99.99,,,0.00,163,weatherlink.com 1.10,2013-04-06 11:43:00,
2013-04-06 07:58:00,37.5,20.0,30.25,NNW,330,4.0,-999.0,50,-99.99,,,0.00,227,weatherlink.com 1.10,2013-04-06 11:58:00,
2013-04-06 08:29:00,38.3,22.0,30.26,NNW,335,3.0,-999.0,52,-99.99,,,0.00,329,weatherlink.com 1.10,2013-04-06 12:29:00,
2013-04-06 08:43:00,39.3,22.0,30.26,NNE,28,2.0,-999.0,50,-99.99,,,0.00,381,weatherlink.com 1.10,2013-04-06 12:43:00,
2013-04-06 08:59:00,39.3,21.0,30.27,North,5,3.0,-999.0,48,-99.99,,,0.00,434,weatherlink.com 1.10,2013-04-06 12:59:00,
2013-04-06 09:14:00,40.0,21.0,30.28,North,5,7.0,-999.0,46,-99.99,,,0.00,482,weatherlink.com 1.10,2013-04-06 13:14:00,
2013-04-06 09:29:00,40.5,20.0,30.28,NNE,19,2.0,-999.0,44,-99.99,,,0.00,531,weatherlink.com 1.10,2013-04-06 13:29:00,
2013-04-06 09:44:00,40.9,20.0,30.29,NW,309,3.0,-999.0,44,-99.99,,,0.00,571,weatherlink.com 1.10,2013-04-06 13:44:00,
2013-04-06 09:59:00,41.1,21.0,30.29,NNE,14,3.0,-999.0,44,-99.99,,,0.00,615,weatherlink.com 1.10,2013-04-06 13:59:00,
2013-04-06 10:14:00,41.4,20.0,30.29,WNW,294,3.0,-999.0,43,-99.99,,,0.00,654,weatherlink.com 1.10,2013-04-06 14:14:00,
2013-04-06 10:29:00,42.2,20.0,30.29,North,355,3.0,-999.0,42,-99.99,,,0.00,694,weatherlink.com 1.10,2013-04-06 14:29:00,
2013-04-06 10:59:00,43.3,20.0,30.30,NNW,338,3.0,-999.0,40,-99.99,,,0.00,761,weatherlink.com 1.10,2013-04-06 14:59:00,
2013-04-06 11:14:00,43.8,20.0,30.30,NNW,334,4.0,-999.0,39,-99.99,,,0.00,789,weatherlink.com 1.10,2013-04-06 15:14:00,
2013-04-06 11:29:00,44.0,17.0,30.30,North,5,2.0,-999.0,34,-99.99,,,0.00,816,weatherlink.com 1.10,2013-04-06 15:29:00,
2013-04-06 11:44:00,44.1,18.0,30.30,NNW,330,3.0,-999.0,35,-99.99,,,0.00,837,weatherlink.com 1.10,2013-04-06 15:44:00,
2013-04-06 11:59:00,45.0,18.0,30.30,West,260,2.0,-999.0,34,-99.99,,,0.00,856,weatherlink.com 1.10,2013-04-06 15:59:00,
2013-04-06 12:14:00,46.8,18.0,30.30,West,268,0.0,-999.0,32,-99.99,,,0.00,874,weatherlink.com 1.10,2013-04-06 16:14:00,
2013-04-06 12:30:00,45.6,18.0,30.30,NNW,340,1.0,-999.0,33,-99.99,,,0.00,881,weatherlink.com 1.10,2013-04-06 16:30:00,
2013-04-06 12:45:00,46.9,19.0,30.30,ESE,114,2.0,-999.0,33,-99.99,,,0.00,888,weatherlink.com 1.10,2013-04-06 16:45:00,
2013-04-06 13:00:00,47.0,16.0,30.30,East,80,1.0,-999.0,29,-99.99,,,0.00,893,weatherlink.com 1.10,2013-04-06 17:00:00,
2013-04-06 13:15:00,47.3,16.0,30.30,North,355,1.0,-999.0,28,-99.99,,,0.00,891,weatherlink.com 1.10,2013-04-06 17:15:00,
2013-04-06 14:00:00,49.5,19.0,30.28,SSW,196,7.0,-999.0,30,-99.99,,,0.00,863,weatherlink.com 1.10,2013-04-06 18:00:00,
2013-04-06 14:15:00,49.9,19.0,30.28,SSE,161,0.0,-999.0,29,-99.99,,,0.00,844,weatherlink.com 1.10,2013-04-06 18:15:00,
2013-04-06 14:30:00,49.9,19.0,30.28,WSW,256,3.0,-999.0,30,-99.99,,,0.00,826,weatherlink.com 1.10,2013-04-06 18:30:00,
2013-04-06 14:45:00,50.7,24.0,30.28,South,190,6.0,-999.0,35,-99.99,,,0.00,802,weatherlink.com 1.10,2013-04-06 18:45:00,
2013-04-06 15:00:00,49.4,25.0,30.28,South,175,5.0,-999.0,38,-99.99,,,0.00,770,weatherlink.com 1.10,2013-04-06 19:00:00,
2013-04-06 15:15:00,49.5,25.0,30.28,SE,136,4.0,-999.0,38,-99.99,,,0.00,737,weatherlink.com 1.10,2013-04-06 19:15:00,
2013-04-06 15:30:00,49.8,24.0,30.28,SSE,147,8.0,-999.0,37,-99.99,,,0.00,703,weatherlink.com 1.10,2013-04-06 19:30:00,
2013-04-06 15:45:00,48.6,25.0,30.28,East,84,2.0,-999.0,40,-99.99,,,0.00,666,weatherlink.com 1.10,2013-04-06 19:45:00,
2013-04-06 16:00:00,48.9,25.0,30.28,SSE,148,12.0,-999.0,40,-99.99,,,0.00,631,weatherlink.com 1.10,2013-04-06 20:00:00,
2013-04-06 16:15:00,47.0,26.0,30.28,South,172,2.0,-999.0,44,-99.99,,,0.00,589,weatherlink.com 1.10,2013-04-06 20:15:00,
2013-04-06 16:30:00,46.9,26.0,30.28,SSW,200,3.0,-999.0,45,-99.99,,,0.00,541,weatherlink.com 1.10,2013-04-06 20:30:00,
2013-04-06 16:45:00,48.2,26.0,30.28,SW,220,4.0,-999.0,43,-99.99,,,0.00,497,weatherlink.com 1.10,2013-04-06 20:45:00,
2013-04-06 17:00:00,49.4,28.0,30.28,SSE,166,4.0,-999.0,43,-99.99,,,0.00,436,weatherlink.com 1.10,2013-04-06 21:00:00,
2013-04-06 17:15:00,48.7,27.0,30.29,SW,230,6.0,-999.0,43,-99.99,,,0.00,396,weatherlink.com 1.10,2013-04-06 21:15:00,
2013-04-06 17:30:00,48.1,28.0,30.29,SSW,194,4.0,-999.0,46,-99.99,,,0.00,346,weatherlink.com 1.10,2013-04-06 21:30:00,
2013-04-06 17:45:00,47.3,28.0,30.29,ENE,67,3.0,-999.0,47,-99.99,,,0.00,292,weatherlink.com 1.10,2013-04-06 21:45:00,
2013-04-06 18:00:00,47.2,28.0,30.30,SE,130,5.0,-999.0,48,-99.99,,,0.00,241,weatherlink.com 1.10,2013-04-06 22:00:00,
2013-04-06 18:15:00,46.5,28.0,30.30,SSW,212,3.0,-999.0,49,-99.99,,,0.00,118,weatherlink.com 1.10,2013-04-06 22:15:00,
2013-04-06 18:30:00,45.6,28.0,30.30,SSE,154,2.0,-999.0,51,-99.99,,,0.00,62,weatherlink.com 1.10,2013-04-06 22:30:00,
2013-04-06 18:45:00,45.0,29.0,30.30,South,175,1.0,-999.0,53,-99.99,,,0.00,37,weatherlink.com 1.10,2013-04-06 22:45:00,
2013-04-06 19:00:00,44.4,29.0,30.30,SSE,159,0.0,-999.0,54,-99.99,,,0.00,18,weatherlink.com 1.10,2013-04-06 23:00:00,
2013-04-06 19:15:00,43.8,29.0,30.31,SSE,162,5.0,-999.0,56,-99.99,,,0.00,7,weatherlink.com 1.10,2013-04-06 23:15:00,
2013-04-06 19:45:00,42.4,29.0,30.31,South,176,0.0,-999.0,60,-99.99,,,0.00,0,weatherlink.com 1.10,2013-04-06 23:45:00,
2013-04-06 20:00:00,41.6,29.0,30.31,South,175,2.0,-999.0,61,-99.99,,,0.00,0,weatherlink.com 1.10,2013-04-07 00:00:00,
2013-04-06 20:15:00,41.0,29.0,30.31,South,170,0.0,-999.0,63,-99.99,,,0.00,0,weatherlink.com 1.10,2013-04-07 00:15:00,
2013-04-06 20:30:00,40.4,29.0,30.32,South,170,0.0,-999.0,65,-99.99,,,0.00,0,weatherlink.com 1.10,2013-04-07 00:30:00,
2013-04-06 20:45:00,39.9,29.0,30.32,SSE,165,0.0,-999.0,66,-99.99,,,0.00,0,weatherlink.com 1.10,2013-04-07 00:45:00,
2013-04-06 21:00:00,39.5,30.0,30.33,SSW,201,1.0,-999.0,68,-99.99,,,0.00,0,weatherlink.com 1.10,2013-04-07 01:00:00,
2013-04-06 21:15:00,39.1,29.0,30.33,SSW,201,1.0,-999.0,68,-99.99,,,0.00,0,weatherlink.com 1.10,2013-04-07 01:15:00,
2013-04-06 21:30:00,38.6,29.0,30.33,SSW,201,0.0,-999.0,69,-99.99,,,0.00,0,weatherlink.com 1.10,2013-04-07 01:30:00,
2013-04-06 21:45:00,38.3,29.0,30.32,SSW,200,0.0,-999.0,70,-99.99,,,0.00,0,weatherlink.com 1.10,2013-04-07 01:45:00,
2013-04-06 22:00:00,38.0,29.0,30.33,SSW,200,0.0,-999.0,71,-99.99,,,0.00,0,weatherlink.com 1.10,2013-04-07 02:00:00,
2013-04-06 22:15:00,37.7,29.0,30.33,SSW,200,0.0,-999.0,72,-99.99,,,0.00,0,weatherlink.com 1.10,2013-04-07 02:15:00,
2013-04-06 22:30:00,37.3,29.0,30.33,SSW,200,0.0,-999.0,73,-99.99,,,0.00,0,weatherlink.com 1.10,2013-04-07 02:30:00,
2013-04-06 22:45:00,37.0,29.0,30.33,SSW,200,0.0,-999.0,73,-99.99,,,0.00,0,weatherlink.com 1.10,2013-04-07 02:45:00,
2013-04-06 23:00:00,36.5,29.0,30.33,SSW,200,0.0,-999.0,74,-99.99,,,0.00,0,weatherlink.com 1.10,2013-04-07 03:00:00,
2013-04-06 23:15:00,36.0,29.0,30.33,SSW,200,0.0,-999.0,75,-99.99,,,0.00,0,weatherlink.com 1.10,2013-04-07 03:15:00,
2013-04-06 23:30:00,35.6,29.0,30.33,SSW,200,0.0,-999.0,76,-99.99,,,0.00,0,weatherlink.com 1.10,2013-04-07 03:30:00,
2013-04-06 23:45:00,35.5,29.0,30.32,SSW,200,0.0,-999.0,78,-99.99,,,0.00,0,weatherlink.com 1.10,2013-04-07 03:45:00,